sat.trackr.live / text

‹ back to catalog

ONEWEB-0368

NORAD 49294 · 2021-090R

PAYLOAD ACTIVE UNKNOWN

§ Identity

Operator
Country
UK
Launch date
2021-10-14
Launch site
VOSTO
Launch vehicle
Mass (kg)
RCS (m²)

Purposes: comms

External: N2YO · Heavens-Above · Gunter

§ Orbital elements

Epoch: 2026-09-20T05:05:03.815808Z

Period
109.03 min
Inclination
87.9145°
Eccentricity
0.0002602
Mean motion
13.20772148 rev/d
Perigee alt
1,179.8 km
Apogee alt
1,183.7 km
Semi-major
7,559.9 km
B*
-1.8240e-5
RAAN
255.4884°
Arg perigee
78.9750°
Mean anomaly
281.1676°
Rev number
24,352

§ Raw data

ONEWEB-03681 49294U 21090R   26263.21184972  .00000006  00000+0 -18240-4 0  99982 49294  87.9145 255.4884 0002602  78.9750 281.1676 13.20772148243528

JSON: /api/v1/satellites/49294 · /tle

For live sub-satellite position, see the globe view (requires WebGL).

§ Visibility from observer

Set your observer location to see the next 7 days of passes ≥ 10°. The values pass through the URL so the page stays shareable.

No JS? Fill the form by hand. The geolocation button needs JavaScript.